Location: Gez
(43.0167°N, 0.1000°W)
Time: 13:19:10
(UTC+00:00)

SL-24 R/B - Pass Details

Date: 14 January 2026
Orbit: 679 x 1188 km, 98.2° (Epoch: 10 February)

Event Time Altitude Azimuth Distance (km) Brightness Sun altitude
Rises 03:14:17 0° 19° (NNE) 4,054 9.1 -46.0°
Reaches altitude 10° 03:17:06 10° 27° (NNE) 3,112 8.4 -45.5°
Enters shadow 03:20:56 29° 50° (NE) 2,031 7.4 -44.8°
